Back to catalog

ONEWEB-0150

AliveCommunicationsPO
NORAD 48047·PAYLOAD·🇬🇧 United Kingdom

Launched Mar 25, 2021 from Vostochny Cosmodrome

Loading…

Next Passes (next 24 hours)

TLE

FreshSource: CelesTrak SupGP

Epoch: Sep 14, 2026, 22:10 UTC

1 48047C 21025F   26257.92376574  .00000972  00000+0  26650-2 0  2573
2 48047  87.8920 302.3691 0001919 103.1362 292.2187 13.13465417    16

Track ONEWEB-0150 in real time with AllMySat

Download on the App Store